• In Hungary
  • List of Countries
  • For 7 days
  • Water Temperature
  • Satellite Maps
  • Weather Map
  • News
  • Weather Widgets
  • user-avatar
    Login

    Hourly Weather Svoboda

    Today, 21 September, Friday

    Time Temperature Precipitation Wind Pressure Humidity
    00:00 +8°C° 0.2 mm 2 mps 721 mmHg 97%
    01:00 +8°C° 0.2 mm 2 mps 721 mmHg 98%
    02:00 +8°C° 0.1 mm 2 mps 721 mmHg 98%
    03:00 +8°C° 0.1 mm 2 mps 721 mmHg 97%
    04:00 +8°C° 0.1 mm 2 mps 722 mmHg 97%
    05:00 +8°C° 0.2 mm 2 mps 722 mmHg 97%
    06:00 +8°C° 0.2 mm 3 mps 722 mmHg 97%
    07:00 +8°C° 0.2 mm 3 mps 722 mmHg 97%
    08:00 +8°C° 0.3 mm 3 mps 722 mmHg 96%
    09:00 +9°C° 0.3 mm 3 mps 723 mmHg 96%
    10:00 +9°C° 0.3 mm 3 mps 723 mmHg 95%
    11:00 +9°C° 0.3 mm 3 mps 723 mmHg 95%
    12:00 +10°C° 0.3 mm 3 mps 724 mmHg 94%
    13:00 +10°C° 0.3 mm 4 mps 724 mmHg 93%
    14:00 +10°C° 0.2 mm 4 mps 725 mmHg 93%
    15:00 +10°C° 0.2 mm 4 mps 725 mmHg 93%
    16:00 +10°C° 0.2 mm 4 mps 725 mmHg 93%
    17:00 +10°C° 0.1 mm 4 mps 726 mmHg 94%
    18:00 +9°C° 0.1 mm 3 mps 726 mmHg 95%
    19:00 +9°C° 0.1 mm 3 mps 727 mmHg 95%
    20:00 +9°C° 0.1 mm 3 mps 727 mmHg 95%
    21:00 +9°C° 0.1 mm 3 mps 727 mmHg 95%
    22:00 +8°C° 0.1 mm 3 mps 728 mmHg 95%
    23:00 +8°C° 0 mm 3 mps 728 mmHg 95%

    Tomorrow, 22 September, Saturday

    Time Temperature Precipitation Wind Pressure Humidity
    00:00 +8°C° 0 mm 3 mps 728 mmHg 96%
    01:00 +8°C° 0 mm 3 mps 728 mmHg 96%
    02:00 +8°C° 0 mm 3 mps 729 mmHg 96%
    03:00 +8°C° 0 mm 3 mps 729 mmHg 96%
    04:00 +8°C° 0 mm 3 mps 730 mmHg 96%
    05:00 +8°C° 0 mm 3 mps 730 mmHg 96%
    06:00 +8°C° 0 mm 3 mps 730 mmHg 96%
    07:00 +8°C° 0 mm 3 mps 730 mmHg 96%
    08:00 +9°C° 0 mm 3 mps 731 mmHg 91%
    09:00 +10°C° 0 mm 3 mps 731 mmHg 86%
    10:00 +11°C° 0 mm 4 mps 731 mmHg 81%
    11:00 +12°C° 0 mm 4 mps 731 mmHg 75%
    12:00 +13°C° 0 mm 4 mps 731 mmHg 70%
    13:00 +14°C° 0 mm 4 mps 731 mmHg 64%
    14:00 +14°C° 0 mm 4 mps 731 mmHg 69%
    15:00 +13°C° 0 mm 3 mps 731 mmHg 74%
    16:00 +13°C° 0 mm 3 mps 731 mmHg 79%
    17:00 +13°C° 0.1 mm 3 mps 731 mmHg 83%
    18:00 +12°C° 0.1 mm 3 mps 732 mmHg 87%
    19:00 +12°C° 0.1 mm 3 mps 732 mmHg 91%
    20:00 +12°C° 0.2 mm 3 mps 732 mmHg 93%
    21:00 +13°C° 0.2 mm 2 mps 732 mmHg 95%
    22:00 +12°C° 0.2 mm 2 mps 732 mmHg 97%
    23:00 +12°C° 0.1 mm 2 mps 732 mmHg 97%

    Day after tomorrow, 23 September, Sunday

    Time Temperature Precipitation Wind Pressure Humidity
    00:00 +12°C° 0.1 mm 2 mps 732 mmHg 98%
    01:00 +12°C° 0.1 mm 2 mps 732 mmHg 98%
    02:00 +12°C° 0.1 mm 1 mps 732 mmHg 98%
    03:00 +12°C° 0.1 mm 1 mps 733 mmHg 98%
    04:00 +12°C° 0.1 mm 1 mps 733 mmHg 98%
    05:00 +12°C° 0.1 mm 1 mps 733 mmHg 98%
    06:00 +12°C° 0.1 mm 1 mps 733 mmHg 98%
    07:00 +11°C° 0.1 mm 0 mps 733 mmHg 98%
    08:00 +12°C° 0 mm 0 mps 734 mmHg 95%
    09:00 +13°C° 0 mm 0 mps 734 mmHg 91%
    10:00 +15°C° 0 mm 1 mps 734 mmHg 88%
    11:00 +16°C° 0 mm 1 mps 734 mmHg 82%
    12:00 +18°C° 0 mm 1 mps 734 mmHg 76%
    13:00 +19°C° 0 mm 1 mps 734 mmHg 70%
    14:00 +19°C° 0 mm 1 mps 734 mmHg 71%
    15:00 +19°C° 0 mm 1 mps 733 mmHg 72%
    16:00 +19°C° 0 mm 1 mps 733 mmHg 72%
    17:00 +16°C° 0 mm 1 mps 733 mmHg 78%
    18:00 +14°C° 0 mm 0 mps 733 mmHg 84%
    19:00 +12°C° 0 mm 0 mps 733 mmHg 90%
    20:00 +12°C° 0 mm 0 mps 733 mmHg 91%
    21:00 +12°C° 0 mm 1 mps 733 mmHg 92%
    22:00 +12°C° 0 mm 1 mps 733 mmHg 93%
    23:00 +12°C° 0 mm 1 mps 733 mmHg 93%

    24 September, Monday

    Time Temperature Precipitation Wind Pressure Humidity
    00:00 +11°C° 0 mm 1 mps 733 mmHg 94%
    01:00 +11°C° 0 mm 1 mps 733 mmHg 94%
    02:00 +11°C° 0 mm 1 mps 733 mmHg 94%
    03:00 +11°C° 0 mm 1 mps 733 mmHg 94%
    04:00 +10°C° 0 mm 1 mps 733 mmHg 94%
    05:00 +11°C° 0 mm 1 mps 733 mmHg 94%
    06:00 +11°C° 0 mm 1 mps 733 mmHg 93%
    07:00 +11°C° 0 mm 1 mps 733 mmHg 93%
    08:00 +13°C° 0 mm 1 mps 732 mmHg 86%
    09:00 +16°C° 0 mm 1 mps 732 mmHg 78%
    10:00 +18°C° 0 mm 2 mps 732 mmHg 71%
    11:00 +19°C° 0 mm 2 mps 732 mmHg 67%
    12:00 +20°C° 0 mm 2 mps 732 mmHg 63%
    13:00 +21°C° 0 mm 2 mps 732 mmHg 59%
    14:00 +21°C° 0 mm 2 mps 732 mmHg 61%
    15:00 +20°C° 0 mm 2 mps 732 mmHg 63%
    16:00 +20°C° 0 mm 2 mps 731 mmHg 64%
    17:00 +18°C° 0 mm 2 mps 731 mmHg 71%
    18:00 +16°C° 0 mm 1 mps 731 mmHg 78%
    19:00 +14°C° 0 mm 1 mps 731 mmHg 84%
    20:00 +14°C° 0 mm 1 mps 732 mmHg 85%
    21:00 +13°C° 0 mm 1 mps 732 mmHg 86%
    22:00 +12°C° 0 mm 2 mps 732 mmHg 87%
    23:00 +12°C° 0 mm 2 mps 732 mmHg 87%

    25 September, Tuesday

    Time Temperature Precipitation Wind Pressure Humidity
    00:00 +12°C° 0 mm 1 mps 732 mmHg 87%
    01:00 +11°C° 0 mm 1 mps 732 mmHg 87%
    02:00 +11°C° 0 mm 1 mps 732 mmHg 87%
    03:00 +11°C° 0 mm 1 mps 732 mmHg 88%
    04:00 +11°C° 0 mm 1 mps 732 mmHg 88%
    05:00 +11°C° 0 mm 1 mps 732 mmHg 86%
    06:00 +11°C° 0 mm 1 mps 732 mmHg 84%
    07:00 +11°C° 0 mm 1 mps 732 mmHg 83%
    08:00 +14°C° 0 mm 2 mps 733 mmHg 74%
    09:00 +16°C° 0 mm 2 mps 733 mmHg 65%
    10:00 +19°C° 0 mm 2 mps 733 mmHg 56%
    11:00 +19°C° 0 mm 2 mps 733 mmHg 53%
    12:00 +20°C° 0 mm 2 mps 733 mmHg 50%
    13:00 +21°C° 0 mm 3 mps 733 mmHg 46%
    14:00 +21°C° 0 mm 2 mps 733 mmHg 49%
    15:00 +20°C° 0 mm 2 mps 733 mmHg 51%
    16:00 +20°C° 0 mm 2 mps 733 mmHg 53%
    17:00 +18°C° 0 mm 2 mps 732 mmHg 58%
    18:00 +15°C° 0 mm 2 mps 732 mmHg 63%
    19:00 +13°C° 0 mm 2 mps 732 mmHg 68%
    20:00 +12°C° 0 mm 2 mps 733 mmHg 68%
    21:00 +12°C° 0 mm 2 mps 733 mmHg 68%
    22:00 +10°C° 0 mm 2 mps 733 mmHg 68%
    23:00 +10°C° 0 mm 2 mps 733 mmHg 68%

    26 September, Wednesday

    Time Temperature Precipitation Wind Pressure Humidity
    00:00 +9°C° 0 mm 2 mps 733 mmHg 68%
    01:00 +9°C° 0 mm 2 mps 733 mmHg 67%
    02:00 +9°C° 0 mm 2 mps 733 mmHg 68%
    03:00 +8°C° 0 mm 2 mps 733 mmHg 68%
    04:00 +8°C° 0 mm 2 mps 733 mmHg 69%
    05:00 +8°C° 0 mm 2 mps 734 mmHg 69%
    06:00 +8°C° 0 mm 2 mps 734 mmHg 70%
    07:00 +8°C° 0 mm 2 mps 734 mmHg 70%
    08:00 +12°C° 0 mm 2 mps 734 mmHg 62%
    09:00 +14°C° 0 mm 3 mps 734 mmHg 55%
    10:00 +17°C° 0 mm 4 mps 734 mmHg 47%
    11:00 +18°C° 0 mm 4 mps 734 mmHg 45%
    12:00 +19°C° 0 mm 4 mps 734 mmHg 43%
    13:00 +20°C° 0 mm 4 mps 734 mmHg 41%
    14:00 +20°C° 0 mm 4 mps 734 mmHg 44%
    15:00 +19°C° 0 mm 3 mps 734 mmHg 48%
    16:00 +19°C° 0 mm 3 mps 734 mmHg 51%
    17:00 +17°C° 0 mm 3 mps 734 mmHg 57%
    18:00 +15°C° 0 mm 2 mps 734 mmHg 63%
    19:00 +13°C° 0 mm 2 mps 734 mmHg 69%
    20:00 +12°C° 0 mm 2 mps 734 mmHg 70%
    21:00 +12°C° 0 mm 2 mps 734 mmHg 71%
    22:00 +10°C° 0 mm 2 mps 734 mmHg 72%
    23:00 +10°C° 0 mm 2 mps 734 mmHg 72%
    Show more